Terminal Aerodrome Forecast
Issued by NWS

Home | Current Version | Previous Version | Text Only | Print | Product List | Glossary On
Versions: 1 2 3 4 5 6 7 8 9 10 11 12 13 14 15 16 17 18 19 20 21 22 23 24
000
FTPQ31 PGUM 191720
TAFGSN
TAF
PGSN 191720Z 1918/2018 07010KT P6SM VCSH SCT020 SCT050
      TEMPO 1918/1920 5SM -SHRA SCT018 BKN030
     FM192200 07014KT P6SM FEW025 FEW050=

USA.gov is the U.S. government's official web portal to all federal, state and local government web resources and services.